Regional Weather Roundup
Issued by NWS

Home | Current Version | Previous Version | Graphics & Text | Print | Product List | Glossary Off
Versions: 1 2 3 4 5 6 7 8 9 10 11 12 13 14 15 16 17 18 19 20 21 22 23 24 25 26 27 28 29 30 31 32 33 34 35 36 37 38 39 40 41 42 43 44 45 46 47 48 49 50

000
ASUS43 KMKX 301211
RWRWI

WISCONSIN REGIONAL WEATHER ROUNDUP
NATIONAL WEATHER SERVICE MILWAUKEE/SULLIVAN WI
700 AM CDT THU JUL 30 2015

NOTE: "FAIR" INDICATES FEW OR NO CLOUDS BELOW 12,000 FEET WITH NO
SIGNIFICANT WEATHER AND/OR OBSTRUCTIONS TO VISIBILITY.

WIZ001-002-006>008-014>016-023>028-301300-
NORTHWEST WISCONSIN

CITY           SKY/WX    TMP DP  RH WIND       PRES   REMARKS
SUPERIOR ARPT  SUNNY     63  57  81 W9        29.94R
6HR MIN TEMP:  61; 6HR MAX TEMP:  64;

ASHLAND        SUNNY     64  57  78 W8        29.92R
6HR MIN TEMP:  62; 6HR MAX TEMP:  66;

HAYWARD        SUNNY     60  56  86 S5        29.98R
6HR MIN TEMP:  56; 6HR MAX TEMP:  66;

SIREN          SUNNY     64  55  74 W7        29.99R
6HR MIN TEMP:  62; 6HR MAX TEMP:  67;

CUMBERLAND     SUNNY     61  54  77 W5        30.00R
RICE LAKE      SUNNY     62  56  81 W5        30.01R
6HR MIN TEMP:  59; 6HR MAX TEMP:  65;

CHETEK         SUNNY     65  57  74 SW3       30.00R
6HR MIN TEMP:  61; 6HR MAX TEMP:  68;

LADYSMITH      SUNNY     63  56  80 W6        30.00S
6HR MIN TEMP:  61; 6HR MAX TEMP:  66;

EAU CLAIRE     SUNNY     63  56  78 SW10      30.00R
6HR MIN TEMP:  60; 6HR MAX TEMP:  65;

MENOMONIE      SUNNY     65  56  72 W7        30.02R
6HR MIN TEMP:  63; 6HR MAX TEMP:  68;

NEW RICHMOND   SUNNY     64  55  74 SW7       30.02S
6HR MIN TEMP:  61; 6HR MAX TEMP:  68;

OSCEOLA        SUNNY     65  57  73 W8        30.04R
6HR MIN TEMP:  63; 6HR MAX TEMP:  68;

$$

WIZ003>005-009-010-017-018-301300-
NORTH CENTRAL WISCONSIN

CITY           SKY/WX    TMP DP  RH WIND       PRES   REMARKS
MANITOWISH WTR SUNNY     63  55  77 W10G16    29.93R
6HR MIN TEMP:  60; 6HR MAX TEMP:  63;

ARBOR VITAE    SUNNY     62  55  79 W7        29.94R
6HR MIN TEMP:  62; 6HR MAX TEMP:  65;

WOODRUFF       SUNNY     62  55  79 W7        29.94R
6HR MIN TEMP:  62; 6HR MAX TEMP:  65;

RHINELANDER    SUNNY     63  54  72 W12       29.96R
6HR MIN TEMP:  60; 6HR MAX TEMP:  67;

EAGLE RIVER    SUNNY     64  52  66 W12       29.92R
6HR MIN TEMP:  62; 6HR MAX TEMP:  65;

LAND O LAKES   SUNNY     65  53  65 W8G18     29.92R
6HR MIN TEMP:  61; 6HR MAX TEMP:  66;

PHILLIPS       SUNNY     60  55  83 SW5       29.96S
6HR MIN TEMP:  58; 6HR MAX TEMP:  64;

TOMAHAWK       SUNNY     63  55  74 W9        29.97R
6HR MIN TEMP:  61; 6HR MAX TEMP:  64;

MEDFORD        SUNNY     61  56  84 W7        29.99S
6HR MIN TEMP:  59; 6HR MAX TEMP:  63;

MERRILL        NOT AVBL
$$

WIZ029-030-035-036-043>047-301300-
CENTRAL WISCONSIN

CITY           SKY/WX    TMP DP  RH WIND       PRES   REMARKS
WAUSAU         SUNNY     65  56  72 NW12      29.96R
6HR MIN TEMP:  64; 6HR MAX TEMP:  69;

MOSINEE        SUNNY     63  57  82 W8        29.99S
MARSHFIELD     SUNNY     63  54  72 W7        30.00R
6HR MIN TEMP:  60; 6HR MAX TEMP:  64;

STEVENS POINT  SUNNY     63  54  74 W7        29.99S
6HR MIN TEMP:  62; 6HR MAX TEMP:  67;

WAUPACA        SUNNY     68  56  63 W8        29.98S
6HR MIN TEMP:  66; 6HR MAX TEMP:  68;

WAUTOMA        SUNNY     67  55  65 W5        30.00R
6HR MIN TEMP:  63; 6HR MAX TEMP:  68;

WISC RAPIDS    SUNNY     65  54  67 W10       30.01R
6HR MIN TEMP:  62; 6HR MAX TEMP:  68;

CAMP DOUGLAS   SUNNY     64  61  88 W5        30.01S
$$

WIZ011>013-019>022-031-037>040-048>050-301300-
NORTHEAST WISCONSIN

CITY           SKY/WX    TMP DP  RH WIND       PRES   REMARKS
ANTIGO         SUNNY     61  55  80 W12G17    29.96R
SHAWANO        SUNNY     67  56  69 W7        29.95R
6HR MIN TEMP:  65; 6HR MAX TEMP:  70;

OCONTO         SUNNY     66  57  72 W9        29.91S
6HR MIN TEMP:  62; 6HR MAX TEMP:  68;

STURGEON BAY   SUNNY     66  54  63 W16G22    29.93R
6HR MIN TEMP:  66; 6HR MAX TEMP:  72;

GREEN BAY      SUNNY     67  56  67 W10G21    29.95R
6HR MIN TEMP:  65; 6HR MAX TEMP:  70;

MANITOWOC      SUNNY     69  57  65 MISG      29.95R
6HR MIN TEMP:  66; 6HR MAX TEMP:  69;

APPLETON       SUNNY     63  54  72 W8        29.97R
CLINTONVILLE   SUNNY     64  54  68 W8        29.96R
OSHKOSH        SUNNY     68  54  60 W8G17     29.97S
6HR MIN TEMP:  65; 6HR MAX TEMP:  71;

$$

WIZ032>034-041-042-053>061-301300-
SOUTHWEST WISCONSIN

CITY           SKY/WX    TMP DP  RH WIND       PRES   REMARKS
LA CROSSE      SUNNY     69  56  62 S3        30.03S
6HR MIN TEMP:  65; 6HR MAX TEMP:  73;

SPARTA         SUNNY     64  55  70 SW3       30.04R
6HR MIN TEMP:  55; 6HR MAX TEMP:  66;

VIROQUA        SUNNY     62  56  82 W7        30.07R
6HR MIN TEMP:  59; 6HR MAX TEMP:  63;

BOSCOBEL       SUNNY     63  59  87 SW5       30.06S
6HR MIN TEMP:  60; 6HR MAX TEMP:  64;

PRAIRIE DU CHI SUNNY     65  56  72 CALM      30.07S
6HR MIN TEMP:  62; 6HR MAX TEMP:  68;

PLATTEVILLE    SUNNY     62  60  93 W3        30.08S
6HR MIN TEMP:  60; 6HR MAX TEMP:  64;

$$

WIZ056-057-062-063-064-067-068-301300-
SOUTH CENTRAL WISCONSIN

CITY           SKY/WX    TMP DP  RH WIND       PRES   REMARKS
REEDSBURG      SUNNY     65  57  76 W3        30.04R
6HR MIN TEMP:  62; 6HR MAX TEMP:  67;

BARABOO/DELLS  SUNNY     65  55  70 SW6       30.04R
6HR MIN TEMP:  60; 6HR MAX TEMP:  68;

LONE ROCK      SUNNY     65  58  78 W6        30.06R
6HR MIN TEMP:  58; 6HR MAX TEMP:  65;

MINERAL POINT  SUNNY     63  59  88 W5        30.07S
MADISON        SUNNY     67  56  67 VRB7      30.03R
6HR MIN TEMP:  65; 6HR MAX TEMP:  70;

MIDDLETON      SUNNY     65  58  77 W8        30.05S
6HR MIN TEMP:  60; 6HR MAX TEMP:  66;

WATERTOWN      SUNNY     64  60  84 W6        30.02R
6HR MIN TEMP:  62; 6HR MAX TEMP:  65;

MONROE         SUNNY     64  57  77 W10       30.07R
JANESVILLE     SUNNY     64  57  77 W7        30.04S
$$

WIZ051-052-058>065-066-070>072-301300-
SOUTHEAST WISCONSIN

CITY           SKY/WX    TMP DP  RH WIND       PRES   REMARKS
MILWAUKEE      SUNNY     69  55  60 W8        30.01R
6HR MIN TEMP:  67; 6HR MAX TEMP:  72;

WAUKESHA       SUNNY     66  55  68 W8        30.03R
MILWAUKEE/TIMM SUNNY     66  54  63 W9        30.01S
RACINE         SUNNY     66  56  70 W8        30.03R
6HR MIN TEMP:  64; 6HR MAX TEMP:  69;

BURLINGTON     SUNNY     64  55  72 W6        30.03R
6HR MIN TEMP:  59; 6HR MAX TEMP:  64;

KENOSHA        SUNNY     65  57  75 W7        30.03R
6HR MIN TEMP:  60; 6HR MAX TEMP:  66;

FOND DU LAC    SUNNY     66  56  70 W10       29.99R
6HR MIN TEMP:  63; 6HR MAX TEMP:  66;

SHEBOYGAN      SUNNY     68  56  65 W13       29.97R
6HR MIN TEMP:  61; 6HR MAX TEMP:  70;

WEST BEND      SUNNY     66  54  63 W9        30.00R
JUNEAU         SUNNY     61  56  84 SW8       30.03R
6HR MIN TEMP:  57; 6HR MAX TEMP:  63;

$$

LSZ147-162-301300-
LAKE SUPERIOR

STATION/POSITION TIME  TEMP    WIND        PRES    WAVE
                       AIR SEA DIR/SP/G            HT/PER
                 (UTC) (F)     (DEG/KT/KT) (MB)    (FT/S)
W MID LAKE BUOY  1150   59 54  250/ 17/ 19 1009.6R   5/ 6
DEVILS ISLAND    1200   62     250/ 22/ 26 1011.6R
PORT WING        1140   67     240/ 13/ 20 1013.2R
SAXON HARBOR     1100   67                 1011.9R
$$

LMZ867-665-643>646-301300-
LAKE MICHIGAN

STATION/POSITION TIME  TEMP    WIND        PRES    WAVE
                       AIR SEA DIR/SP/G            HT/PER
                 (UTC) (F)     (DEG/KT/KT) (MB)    (FT/S)
CHAMBERS ISLAND  1100   67     220/  9/ 15 1011.2R



USA.gov is the U.S. government's official web portal to all federal, state and local government web resources and services.